Weather in Heinola

Finland     61°12′21″N   26°02′23″E
temp.,
°C
wind,
m/s
gust,
m/s
humid.,
%
clouds,
%
prec.,
mm/h
press.,
hPa
HPBL,
m
19 may, wed
wed1900:00+14nne3894100 0.3 1003350
03:00+14e2799100 3.8 1002350
06:00+14e2599100 0.9 1000267
09:00+14sse31196100 1.5 1001619
12:00+16s128892 1.0 1000438
15:00+20wsw2373100 2.1 999796
18:00+12nw3798100 4.5 997294
21:00+10wnw3998100 15.0 998360
20 may, thu
thu2000:00+9w4897100 0.6 1000455
03:00+9wnw2696100 0.6 1002463
06:00+8nw2696100 0.1 1004507
09:00+8nw3695100 0.1 1005432
12:00+9nnw2594100 0.1 1006370
15:00+10nnw2794100 0.2 1005482
18:00+10nnw2596100 1.2 1003341
21:00+9nw3799100 4.1 1002342
21 may, fri
fri2100:00+10nnw2698100 3.0 999431
03:00+9nw4898100 8.3 998567
06:00+8wnw4997100 4.6 997623
09:00+8w4894100 5.9 997876
12:00+9wsw4991100 0.7 9971226
15:00+9wsw41087100 2.4 9981119
18:00+8w41188100 1.2 10001194
21:00+8wsw41184100 1.3 1001947
22 may, sat
sat2200:00+7sw41194100 0.1 1002712
03:00+7sw5129296 0.2 1003813
06:00+7ssw4139488 0.0 1003629
09:00+9ssw5984100 0.0 1004622
12:00+10ssw4684100 0.1 1004720
15:00+10ssw4786100 0.3 1004823
18:00+12ssw477964 0.3 1004892
21:00+10ssw37855 0.8 1005293
23 may, sun
sun2300:00+7s279882 0.0 1007157
03:00+7sse2396100 0.0 100686
06:00+8se2594100 0.0 1006191
09:00+10e2490100 0.1 1005317
12:00+10ene2596100 0.3 1004321
15:00+10ne3692100 0.6 1002495
18:00+10n2496100 0.2 1001376
21:00+9wnw2498100 0.3 1000207